Retour au catalogue

PEXT

ActifScienceSSO
NORAD 64874·PAYLOAD·🇺🇸 United States

Lancé Jul 23, 2025 depuis Vandenberg Space Force Base

Loading…

Prochains Passages (prochaines 24 heures)

TLE

FraisSource: Space-Track

Époque: Sep 14, 2026, 14:20 UTC

1 64874U 25154F   26257.59769442  .00002361  00000-0  10987-3 0  9994
2 64874  97.3874 320.9139 0002379   9.4937 350.6344 15.20900363 63439

Suivez PEXT en temps réel avec AllMySat

Download on the App Store